Regional Weather Roundup
Issued by NWS San Diego, CA

Home | Current Version | Previous Version | Text Only | Print | Product List | Glossary On
Versions: 1 2 3 4 5 6 7 8 9 10 11 12 13 14 15 16 17 18 19 20 21 22 23 24 25 26 27 28 29 30 31 32 33 34 35 36 37 38 39 40 41 42 43 44 45 46 47 48 49 50
000
ASUS46 KSGX 261004
RWRSGX

SAN DIEGO HOURLY WEATHER ROUNDUP
NATIONAL WEATHER SERVICE SAN DIEGO CA
300 AM PDT WED APR 26 2017

NOTE: "FAIR" INDICATES FEW OR NO CLOUDS BELOW 12,000 FEET WITH NO
SIGNIFICANT WEATHER AND/OR OBSTRUCTIONS TO VISIBILITY.

CAZ042-043-060-061-PZZ750-775-261100-

GREATER SAN DIEGO AREA

CITY           SKY/WX    TMP DP  RH WIND       PRES   REMARKS
SAN DIEGO AP   PTCLDY    60  55  83 CALM      29.90F
NATIONAL CITY    N/A     58  54  85 CALM      29.90S
CHULA VISTA      N/A     55  53  92 CALM      29.82F
IMPERIAL BEACH CLEAR    N/A N/A N/A CALM      29.90F
BROWN FIELD    CLEAR     55  53  93 CALM      29.89F
MIRAMAR MCAS   PTCLDY    55  47  74 E3        29.88F
MONTGOMERY FLD CLEAR     57  51  80 CALM      29.89F

$$

NORTH SAN DIEGO COUNTY

CITY           SKY/WX    TMP DP  RH WIND       PRES   REMARKS
CAMP PENDLETON PTCLDY    50  48  93 CALM      29.89F
OCEANSIDE AP   PTCLDY    53  50  89 N3        29.88F
OCEANSIDE HBR    N/A     56  51  84 CALM      29.91F
VISTA            N/A     53  48  84 CALM      29.86F
CARLSBAD       PTCLDY    57  50  77 CALM      29.88F
DEL MAR          N/A     56  54  94 CALM      29.90F
LA JOLLA SCRIP   N/A     58  55  90 NE2       29.88F
FALLBROOK        N/A     53  52  97 CALM      29.87F
ESCONDIDO        N/A     55  47  73 CALM      29.90F
SAN MARCOS       N/A     54  48  81 CALM      29.90F
POWAY            N/A     51  45  82 CALM      29.91F

$$

EAST SAN DIEGO COUNTY

CITY           SKY/WX    TMP DP  RH WIND       PRES   REMARKS
RAMONA         PTCLDY    47  45  93 CALM      29.89F
SANTEE LAKES     N/A     52  48  86 NW1       29.88F
LA MESA          N/A     55  53  92 CALM      29.82F
JAMUL            N/A     50  47  90 CALM      29.89S
DESCANSO N       N/A     46  40  78 NE6       29.85F
MT. LAGUNA OBS   N/A     59  25  27 NE9       29.60F
CAMPO            N/A     42  42 100 CALM      29.88F

$$

ORANGE COUNTY AND THE LOS ANGELES BASIN

CITY           SKY/WX    TMP DP  RH WIND       PRES   REMARKS
JOHN WAYNE AP  CLEAR     60  56  86 E5        29.89S
LAKE FOREST FR   N/A     54  46  74 CALM      29.78F
HUNTINGTON BCH   N/A     58  55  91 CALM      29.90R
LOS ALAMITOS   FAIR      58  53  84 E8        29.88S
FULLERTON      CLEAR     61  54  77 E6        29.88S
LONG BEACH     CLEAR     59  52  77 CALM      29.88S
L.A. AP        PTCLDY    60  53  77 SE5       29.89S
L.A. DOWNTOWN  CLEAR     63  51  65 E5        29.88F

$$

THE INLAND EMPIRE

CITY           SKY/WX    TMP DP  RH WIND       PRES   REMARKS
CORONA         CLEAR     54  47  77 CALM      29.90R
CHINO          CLEAR     56  47  71 NW3       29.90S
ONTARIO        MOCLDY    58  46  64 W3        29.89R
SAN BERNARDINO FAIR      57  44  62 CALM      29.90R
RIVERSIDE AP   CLEAR     57  47  69 CALM      29.89R
MORENO VALLEY    N/A     52  49  87 CALM      28.02F
MARCH ARB      PTCLDY    47  43  87 W3        29.90R
HORSETHIEF CYN   N/A     53  40  61 W6        29.89S
PERRIS           N/A     55  48  78 CALM      29.92F
HEMET EAST       N/A     53  42  66 CALM      29.93F
FRENCH VALLEY  FAIR      52  45  76 CALM      29.90S
TEMECULA         N/A     53  49  86 CALM      29.95S

$$

SAN BERNARDINO AND RIVERSIDE COUNTY MOUNTAINS

CITY           SKY/WX    TMP DP  RH WIND       PRES   REMARKS
BIG BEAR AP    MOCLDY    36  28  75 CALM      30.07S
ANGELUS OAKS     N/A     53  31  42 CALM      29.84S

$$

SOUTHERN DESERT INCLUDING THE COACHELLA VALLEY

CITY           SKY/WX    TMP DP  RH WIND       PRES   REMARKS
PALM SPRINGS   PTCLDY    69  44  40 CALM      29.81F
PALM DESERT      N/A     66  49  54 CALM      27.71
THERMAL        PTCLDY    66  43  43 CALM      29.77F
BLYTHE         PTCLDY    73  33  23 NW12      29.81R
IMPERIAL AP    PTCLDY    66  46  48 NE3       29.78S
EL CENTRO NAS  PTCLDY    63  41  44 N6        29.80S
YUMA AZ        PTCLDY    67  49  52 NW7       29.79R

$$

UPPER DESERT

CITY           SKY/WX    TMP DP  RH WIND       PRES   REMARKS
VICTORVILLE AP MOCLDY    52  34  50 W13       29.96F
HESPERIA         N/A     50  35  56 SW2       30.08R
PALMDALE       MOCLDY    58  35  42 W16       29.97F
LANCASTER      MOCLDY    56  36  47 W25       29.94F
EDWARDS AFB    PTCLDY    55  35  47 SW6       29.92F
DAGGETT        PTCLDY    57  36  45 W16       29.93R
29 PALMS N     MOCLDY    58  31  35 NW5       29.97F
NEEDLES        CLEAR     70  25  18 CALM      29.82S

$$

REGIONAL REPORTS

CITY           SKY/WX    TMP DP  RH WIND       PRES   REMARKS
SANTA BARBARA  CLEAR     59  46  62 W7        29.90F
SANDBERG       MOCLDY    46  37  71 NW38G47   30.01F
LAS VEGAS NV   MOCLDY    61  16  17 S5        29.87R
PHOENIX AZ     CLEAR     71  26  18 NW5       29.78R
TIJUANA        PTCLDY    55  48  76 CALM      29.91
ENSENADA NW      N/A     57  32  38 NE1       29.85F

$$

OFFSHORE ISLANDS

CITY           SKY/WX    TMP DP  RH WIND       PRES   REMARKS
CATALINA ARPT  CLEAR     59  43  55 NW12      29.92S
SAN NICOLAS IS CLEAR    N/A N/A N/A NW32G43   29.89F

$$

MARINE AND OFFSHORE BUOY REPORTS

STATION/POSITION SKY/WX   TEMP    WIND        PRES    VSBY  SWELL
                          AIR SEA DIR/SP/G                  HT/PER/DIR
                          (F)     (DEG/KT/KT) (MB)    (MI)  (FT/S/D)
TANNER BANKS               58 58  320/ 21/ 27 1013.5          8/330/ 9
S CLEMENTE BASIN           60 62  300/ 10/ 12 1012.4          8/300/ 8
SAN NICOLAS IS.               55                N/A           5/290/12
SO. S. ROSA ISLA           54 53  310/ 27/ 31 1013.8          5/290/11
W. S. BARBARA CH           53 51  330/ 25/ 29 1015.4          3/290/11
M. S. BARBARA CH                  280/ 17/ 21 1013.0F
S. MONICA BASIN            60 62  310/ 14/ 17 1011.8F
S PEDRO CHANNEL               58                N/A           2/270/11
CMP PENDLETON NS              63                N/A           3/220/17
OCEANSIDE OFFSHR              63                N/A           3/190/17
TORREY PINES OTR              64                N/A           3/260/12
POINT LOMA SOUTH              60                N/A           3/270/11

$$




USA.gov is the U.S. government's official web portal to all federal, state and local government web resources and services.